Weather History for 10400 - September, 2013

Change the Weather History Date:

Wednesday, September 11, 2013

  Actual Average Record
Temperature  
Mean Temperature 58 °F -  
Max Temperature 64 °F 63 °F - ()
Min Temperature 52 °F 48 °F - ()
Degree Days  
Heating Degree Days 7    
Growing Degree Days 8 (Base 50)    
Moisture  
Dew Point 53 °F    
Average Humidity 86    
Maximum Humidity 94    
Minimum Humidity 59    
Precipitation  
Precipitation 0.08 in - - ()
Sea Level Pressure  
Sea Level Pressure 29.89 in    
Wind  
Wind Speed 12 mph ()    
Max Wind Speed 23 mph    
Max Gust Speed 29 mph    
Visibility 6.6 miles    
Events Rain , Thunderstorm    
T = Trace of Precipitation, MM = Missing Value Source: Averaged Metar Reports

Daily Weather History Graph

Daily Weather History Graph

Search for Another Location

Airport or City:

Trip Planner

Search our weather history database for the weather conditions in past years. The results will help you decide how hot, cold, wet, or windy it might be!

Date:

Astronomy

Sep. 11, 2013 Rise Set
Actual Time 7:01 AM CEST 7:56 PM CEST
Civil Twilight 6:27 AM CEST 8:29 PM CEST
Nautical Twilight 5:47 AM CEST 9:10 PM CEST
Astronomical Twilight 5:03 AM CEST 9:53 PM CEST
Moon 1:57 PM CEST (9/11) 10:53 PM CEST (9/11)
Length of Visible Light 14h 02m
Length of Day
12h 54m
Waxing Crescent, 36% of the Moon is Illuminated
Sep 11
Waxing Crescent
Sep 12
First Quarter
Sep 19
Full
Sep 27
Last Quarter
Oct 5
New

Hourly Weather History & Observations

Time (CEST) Temp. Dew Point Humidity Pressure Visibility Wind Dir Wind Speed Gust Speed Precip Events Conditions
12:20 AM 53.6 °F 51.8 °F 94% 29.80 in 6.2 mi SW 21.9 mph - N/A Rain Rain
12:50 AM 53.6 °F 51.8 °F 94% 29.80 in 6.2 mi SW 20.7 mph - N/A Rain Rain
1:00 AM 54 °F 51 °F 88% 29.82 in 7 mi SW 20.1 mph - - Rain Rain
1:20 AM 53.6 °F 51.8 °F 94% 29.80 in 6.2 mi SW 23.0 mph - N/A Rain Light Rain
1:50 AM 53.6 °F 51.8 °F 94% 29.80 in 6.2 mi SW 19.6 mph - N/A Rain Light Rain
2:00 AM 54 °F 52 °F 90% 29.82 in 9 mi SW 20.1 mph - - Rain Light Rain
2:20 AM 53.6 °F 51.8 °F 94% 29.80 in 6.2 mi WSW 18.4 mph - N/A Rain Light Rain
2:50 AM 53.6 °F 51.8 °F 94% 29.80 in 6.2 mi WSW 19.6 mph - N/A Rain Light Drizzle
3:00 AM 54 °F 52 °F 90% 29.82 in 7 mi WSW 20.1 mph - - Rain Light Rain
3:20 AM 53.6 °F 51.8 °F 94% 29.80 in 6.2 mi WSW 17.3 mph - N/A Rain Light Drizzle
3:50 AM 53.6 °F 51.8 °F 94% 29.83 in 6.2 mi WSW 12.7 mph - N/A Rain Light Drizzle
4:00 AM 54 °F 52 °F 90% 29.83 in 7 mi WSW 13.4 mph - - Rain Light Rain
4:20 AM 53.6 °F 51.8 °F 94% 29.83 in 4.3 mi WNW 8.1 mph - N/A Rain Rain
4:50 AM 53.6 °F 51.8 °F 94% 29.83 in 4.3 mi West 8.1 mph - N/A Rain Rain
5:20 AM 53.6 °F 51.8 °F 94% 29.83 in 5.6 mi NNW 5.8 mph - N/A Rain Rain
5:50 AM 53.6 °F 51.8 °F 94% 29.83 in 5.6 mi NNW 4.6 mph - N/A   Mostly Cloudy
6:20 AM 53.6 °F 51.8 °F 94% 29.83 in 6.2 mi NNW 5.8 mph - N/A   Mostly Cloudy
6:50 AM 53.6 °F 51.8 °F 94% 29.86 in 5.0 mi NNW 6.9 mph - N/A   Mostly Cloudy
7:20 AM 53.6 °F 51.8 °F 94% 29.86 in 5.0 mi NNW 6.9 mph - N/A   Mostly Cloudy
7:50 AM 53.6 °F 51.8 °F 94% 29.89 in 6.2 mi NW 8.1 mph - N/A   Mostly Cloudy
8:00 AM 53 °F 51 °F 90% 29.90 in 6 mi NW 6.7 mph - -   Partly Cloudy
8:20 AM 53.6 °F 51.8 °F 94% 29.89 in 6.2 mi NW 4.6 mph - N/A   Mostly Cloudy
8:50 AM 53.6 °F 51.8 °F 94% 29.89 in 4.3 mi West 6.9 mph - N/A   Mostly Cloudy
9:20 AM 53.6 °F 51.8 °F 94% 29.89 in 4.3 mi WNW 9.2 mph - N/A   Mostly Cloudy
9:50 AM 53.6 °F 51.8 °F 94% 29.92 in 3.7 mi WNW 6.9 mph - N/A   Mostly Cloudy
10:00 AM 54 °F 52 °F 91% 29.93 in 4 mi WNW 6.7 mph - -   Mist
10:20 AM 55.4 °F 51.8 °F 88% 29.92 in 3.7 mi West 9.2 mph - N/A   Mostly Cloudy
10:50 AM 55.4 °F 51.8 °F 88% 29.92 in 6.2 mi West 9.2 mph - N/A   Mostly Cloudy
11:20 AM 57.2 °F 51.8 °F 82% 29.92 in 5.6 mi West 8.1 mph - N/A   Mostly Cloudy
11:50 AM 57.2 °F 53.6 °F 88% 29.92 in 6.2 mi West 6.9 mph - N/A Rain Light Rain Showers
12:00 PM 58 °F 54 °F 81% 29.92 in 6 mi West 6.7 mph - - Rain Light Rain Showers
12:20 PM 59.0 °F 55.4 °F 88% 29.92 in 6.2 mi West 11.5 mph - N/A   Mostly Cloudy
12:50 PM 62.6 °F 53.6 °F 72% 29.89 in 6.2 mi West 11.5 mph - N/A   Scattered Clouds
1:00 PM 62 °F 53 °F 66% 29.91 in 12 mi West 11.2 mph - - Rain Light Rain Showers
1:20 PM 62.6 °F 53.6 °F 72% 29.89 in 6.2 mi WNW 13.8 mph - N/A   Scattered Clouds
1:50 PM 62.6 °F 53.6 °F 72% 29.89 in 6.2 mi West 15.0 mph - N/A Rain Rain Showers
2:00 PM 62 °F 52 °F 62% 29.90 in 12 mi West 15.7 mph - - Rain Light Rain Showers
2:20 PM 62.6 °F 51.8 °F 68% 29.89 in 6.2 mi WNW 12.7 mph - N/A   Mostly Cloudy
2:50 PM 64.4 °F 53.6 °F 68% 29.89 in 6.2 mi WNW 10.4 mph - N/A Rain , Thunderstorm Thunderstorms and Rain
3:00 PM 63 °F 52 °F 59% 29.91 in 9 mi WNW 11.2 mph - - Thunderstorm Thunderstorm
3:20 PM 57.2 °F 51.8 °F 82% 29.89 in 6.2 mi NNW 11.5 mph - N/A Rain , Thunderstorm Thunderstorms and Rain
3:50 PM 59.0 °F 51.8 °F 77% 29.92 in 6.2 mi NW 11.5 mph 23.0 mph N/A Rain Light Rain Showers
4:00 PM 58 °F 52 °F 73% 29.92 in 12 mi NW 8.9 mph - - Rain Light Rain
4:20 PM 57.2 °F 51.8 °F 82% 29.89 in 6.2 mi West 6.9 mph - N/A Rain Light Rain Showers
4:50 PM 59.0 °F 53.6 °F 82% 29.92 in 5.6 mi NNW 16.1 mph 28.8 mph N/A Rain Rain Showers
5:20 PM 57.2 °F 51.8 °F 82% 29.92 in 5.0 mi North 6.9 mph - N/A Rain Rain Showers
5:50 PM 57.2 °F 53.6 °F 88% 29.92 in 6.2 mi NW 3.5 mph - N/A Rain Rain Showers
6:00 PM 56 °F 53 °F 87% 29.94 in 12 mi NW 2.2 mph - - Rain Light Rain Showers
6:20 PM 57.2 °F 53.6 °F 88% 29.92 in 6.2 mi WNW 4.6 mph - N/A Rain Light Rain Showers
6:50 PM 57.2 °F 53.6 °F 88% 29.92 in 6.2 mi West 4.6 mph - N/A   Mostly Cloudy
7:00 PM 57 °F 53 °F 84% 29.94 in 22 mi West 4.5 mph - - Rain Light Rain Showers
7:20 PM 57.2 °F 53.6 °F 88% 29.92 in 6.2 mi West 5.8 mph - N/A   Mostly Cloudy
7:50 PM 57.2 °F 53.6 °F 88% 29.92 in 6.2 mi West 5.8 mph - N/A   Mostly Cloudy
8:00 PM 57 °F 53 °F 83% 29.94 in 22 mi West 6.7 mph - -   Partly Cloudy
8:20 PM 57.2 °F 53.6 °F 88% 29.92 in 6.2 mi WNW 5.8 mph - N/A   Mostly Cloudy
8:50 PM 57.2 °F 53.6 °F 88% 29.92 in 6.2 mi WNW 5.8 mph - N/A   Mostly Cloudy
9:00 PM 56 °F 53 °F 86% 29.94 in 16 mi WNW 4.5 mph - - Rain Light Rain Showers
9:20 PM 57.2 °F 53.6 °F 88% 29.92 in 6.2 mi WNW 5.8 mph - N/A   Mostly Cloudy
9:50 PM 57.2 °F 53.6 °F 88% 29.95 in 6.2 mi NW 8.1 mph - N/A Rain Light Rain Showers
10:00 PM 57 °F 53 °F 82% 29.95 in 9 mi NW 8.9 mph - - Rain Light Rain Showers
10:20 PM 57.2 °F 53.6 °F 88% 29.95 in 6.2 mi NW 8.1 mph - N/A   Mostly Cloudy
10:50 PM 57.2 °F 53.6 °F 88% 29.95 in 6.2 mi WNW 5.8 mph - N/A   Mostly Cloudy
11:20 PM 57.2 °F 53.6 °F 88% 29.95 in 6.2 mi WNW 6.9 mph - N/A   Mostly Cloudy
11:50 PM 57.2 °F 53.6 °F 88% 29.95 in 6.2 mi WNW 6.9 mph - N/A   Mostly Cloudy